Location: Peebles
(55.6412°N, 3.1714°W)
Time: 06:21:13
(UTC+01:00)

METEOR 2-8 DEB - Pass Details

Date: 08 July 2022
Orbit: 792 x 830 km, 82.5° (Epoch: 08 August)

Event Time Altitude Azimuth Distance (km) Brightness Sun altitude
Rises 22:54:58 0° 205° (SSW) 3,313 ? -6.3°
Reaches altitude 10° 22:57:25 10° 210° (SSW) 2,380 ? -6.5°
Maximum altitude 23:02:40 55° 288° (WNW) 962 ? -6.8°
Drops below altitude 10° 23:07:55 10° 6° (N) 2,378 ? -7.2°
Sets 23:10:22 0° 11° (N) 3,310 ? -7.4°
